Weather Roundup
Issued by NWS

Home | Current Version | Previous Version | Text Only | Print | Product List | Glossary On
Versions: 1 2 3 4 5 6 7 8 9 10 11 12 13 14 15 16 17 18 19 20 21 22 23 24 25 26 27 28 29 30 31 32 33 34 35 36 37 38 39 40 41 42 43 44 45 46 47 48 49 50
000
NZUS93 KARX 272259
HRRWXR

CURRENT HOURLY OBSERVATIONS ACROSS
MUCH OF THE UPPER MISSISSIPPI VALLEY
NATIONAL WEATHER SERVICE LA CROSSE WI
600 PM CDT WED AUG 27 2014


...SOUTHEAST MINNESOTA...


CITY           SKY/WX    TMP DP  RH WIND       PRES   REMARKS
ROCHESTER      PTSUNNY   73  59  61 E3        30.15F
ROCHESTER/MAYO FAIR      72  54  52 CALM      30.14F
WINONA         PTSUNNY   73  57  56 CALM      30.13F
AUSTIN         PTSUNNY   72  59  64 E5        30.13F
ALBERT LEA     PTSUNNY   73  57  56 E8        30.13F
DODGE CENTER   MOSUNNY   73  61  64 CALM      30.14F
PRESTON        CLOUDY    70  62  74 CALM      30.15F
OWATONNA       MOSUNNY   73  57  56 SE5       30.13F
FARIBAULT      MOSUNNY   75  54  46 E3        30.14S
$$

...ELSEWHERE IN MINNESOTA...


CITY           SKY/WX    TMP DP  RH WIND       PRES   REMARKS
MINNEAPOLIS    PTSUNNY   76  53  44 VRB3      30.12F
INTNL FALLS    PTSUNNY   69  51  52 NW6       30.12F
DULUTH         MOSUNNY   70  48  45 W8        30.15F
RED WING       MOSUNNY   75  54  46 S5        30.12S
REDWOOD FALLS  NOT AVBL
MANKATO        SUNNY     73  55  53 SE6       30.13S
WORTHINGTON    NOT AVBL
FAIRMONT       NOT AVBL
$$

...SOUTHWEST WISCONSIN...


CITY           SKY/WX    TMP DP  RH WIND       PRES   REMARKS
LA CROSSE      PTSUNNY   76  58  53 VRB3      30.12F
PRAIRIE DU CHI PTSUNNY   74  57  55 E3        30.12F
BOSCOBEL       PTSUNNY   75  60  59 NE5       30.12F
LONE ROCK      NOT AVBL
PLATTEVILLE    PTSUNNY   74  61  62 NE7       30.14F
FORT MC COY    PTSUNNY   75  56  51 N3        30.14F
VIROQUA        FAIR      71  59  64 CALM      30.15F
WIS DELLS      PTSUNNY   73  56  53 W5        30.14S
$$

...ELSEWHERE IN WISCONSIN...


CITY           SKY/WX    TMP DP  RH WIND       PRES   REMARKS
MILWAUKEE      PTSUNNY   69  61  75 NE7       30.14F
MADISON        PTSUNNY   75  60  59 NW3       30.13F
GREEN BAY      MOSUNNY   73  58  59 CALM      30.14F
EAU CLAIRE     SUNNY     74  55  51 CALM      30.14F
BLACK RVR FLS  FAIR      75  55  49 N5        30.13F
MEDFORD        SUNNY     69  52  55 N3        30.16F
WAUSAU         SUNNY     73  51  46 NW7       30.13F
WIS RAPIDS     SUNNY     73  57  57 NW5       30.15F
MARSHFIELD     SUNNY     73  54  51 N6        30.15F
RICE LAKE      SUNNY     70  53  53 CALM      30.17F
$$

...NORTHEAST IOWA...


CITY           SKY/WX    TMP DP  RH WIND       PRES   REMARKS
WATERLOO       PTSUNNY   74  58  57 E7        30.10F
DUBUQUE        PTSUNNY   74  61  63 NE8       30.12F
DECORAH        CLOUDY    72  61  68 NE6       30.13F
MASON CITY     PTSUNNY   72  59  63 SE6       30.13F
CHARLES CITY   PTSUNNY   72  61  68 NE5       30.13F
OELWEIN        PTSUNNY   73  61  64 NE7       30.13S
$$

...ELSEWHERE IN IOWA...


CITY           SKY/WX    TMP DP  RH WIND       PRES   REMARKS
DES MOINES     CLOUDY    76  67  73 E9        30.07F
IOWA CITY      SUNNY     76  64  66 NE9       30.10S
FORT DODGE     PTSUNNY   72  64  78 E8        30.10F
MARSHALLTOWN   PTSUNNY   74  65  73 E8        30.10S
CEDAR RAPIDS   SUNNY     76  63  64 E5        30.09F
$$

...NORTHERN ILLINOIS...


CITY           SKY/WX    TMP DP  RH WIND       PRES   REMARKS
CHICAGO-OHARE  CLOUDY    73  60  63 NE9       30.12F
DUPAGE         CLOUDY    74  64  71 E10       30.11S
CHICAGO-MIDWAY CLOUDY    74  64  71 E9        30.12S
MOLINE         CLOUDY    76  62  62 NE8       30.08F
ROCKFORD       CLOUDY    76  60  57 SE3       30.12F
STERLING       CLOUDY    75  63  64 NE8       30.09F
PEORIA         PTSUNNY   83  69  62 NE9       30.07F
$$

NOTE: "FAIR" INDICATES FEW OR NO CLOUDS BELOW 12,000 FEET WITH NO
SIGNIFICANT WEATHER AND/OR OBSTRUCTIONS TO VISIBILITY. WIND
SPEEDS ARE IN MILES-PER-HOUR.



USA.gov is the U.S. government's official web portal to all federal, state and local government web resources and services.